Probability
0 0 0 0 0 0 0 0 0 0 0 0 0 0 0 0 0 0 0 0 0 0 0 1 2 2 2 2 3 2 1 0 1 1 1 1 1 2 3 3 3 3 3
0 0 0 0 0 0 0 0 0 0 0 0 0 0 0 0 0 0 0 0 0 0 0 0 1 1 2 2 2 2 1 0 0 0 0 0 0 1 2 3 2 2 1
0 0 0 0 0 0 0 0 0 0 0 0 0 0 0 0 0 0 0 0 0 0 0 0 0 0 1 1 1 1 0 0 0 0 0 1 1 1 1 1 1 1 0
0 0 0 0 0 0 0 0 0 0 0 0 0 0 0 0 0 0 0 0 0 0 0 0 0 0 0 1 1 1 1 1 0 0 0 1 2 1 1 0 0 0 0
0 0 0 0 0 0 0 0 0 0 0 0 0 0 0 0 0 0 0 0 0 0 0 0 0 0 0 1 2 2 2 2 1 0 0 1 2 1 0 0 0 0 0
0 0 0 0 0 0 0 0 0 0 0 0 0 0 0 0 0 0 0 0 0 0 0 0 0 0 0 1 2 2 3 2 1 0 0 0 1 1 0 0 0 0 0
0 0 0 0 0 0 0 0 0 0 0 0 0 0 0 0 0 0 0 0 0 0 0 0 0 0 0 0 1 1 1 1 1 0 0 0 0 0 0 0 0 0 0
0 0 0 0 0 0 0 0 0 0 0 0 0 0 0 0 0 0 0 0 0 0 0 0 0 0 0 0 0 0 0 0 0 0 0 0 1 0 0 0 0 0 0
0 0 0 0 0 0 0 0 0 0 0 0 0 0 0 0 0 0 0 0 0 0 0 0 0 0 0 0 0 0 0 0 0 0 0 0 0 0 0 0 0 0 0
0 0 0 0 0 0 0 0 0 0 0 0 0 0 0 0 0 0 0 0 0 0 0 0 0 0 0 0 0 0 0 0 0 0 0 0 0 0 0 0 0 0 0
0 0 0 0 0 0 0 0 0 0 0 0 0 0 0 0 0 0 0 0 0 0 0 0 0 0 0 0 0 0 0 0 0 0 0 0 0 0 0 0 0 0 0
0 0 0 0 0 0 0 0 0 0 0 0 0 0 0 0 0 0 0 0 0 0 0 0 0 0 0 0 0 0 0 0 0 0 0 0 0 0 0 0 0 1 1
0 0 0 0 0 0 0 0 0 0 0 0 0 0 0 0 0 0 0 0 0 0 0 0 0 0 0 0 0 0 0 0 0 0 0 0 0 0 0 0 0 1 2
0 0 0 0 0 0 0 0 0 0 0 0 0 0 0 0 0 0 0 0 0 0 0 0 0 0 0 0 0 0 0 0 0 0 0 0 0 0 0 0 0 1 1
0 0 0 0 0 0 0 0 0 0 0 0 0 0 0 0 0 0 0 0 0 0 0 0 0 0 0 0 0 0 0 0 0 0 0 0 0 0 0 0 0 0 0
0 0 0 0 0 0 0 0 0 0 0 0 0 0 0 0 0 0 0 0 0 0 0 0 0 0 0 0 0 0 0 0 0 0 0 0 0 0 0 0 0 0 0
1 2 1 0 0 0 0 0 0 0 0 0 0 0 0 0 0 0 0 0 0 0 0 0 0 0 0 0 0 0 0 0 0 0 0 0 0 0 0 0 0 0 0
2 3 2 1 1 0 0 0 0 0 0 0 0 0 0 0 0 0 0 0 0 0 0 0 0 0 0 0 0 0 0 0 0 0 0 0 0 0 0 0 0 0 0
1 2 3 3 2 1 0 0 0 0 0 0 0 0 0 0 0 0 0 0 0 0 0 0 0 0 0 0 0 0 0 0 0 0 0 0 0 0 0 0 0 0 0
1 2 3 3 3 2 1 0 0 0 0 0 0 0 0 0 0 0 0 0 0 0 0 0 0 0 0 0 0 0 0 0 0 0 0 0 0 0 0 0 0 0 0
3 2 3 3 3 3 2 1 0 0 0 0 0 0 0 0 0 0 0 0 0 0 0 0 0 0 0 0 0 0 0 0 0 0 0 0 0 0 0 0 0 0 0
4 3 3 3 3 3 3 2 1 0 0 0 0 0 0 0 0 0 0 0 0 0 0 0 0 0 0 0 0 0 0 0 0 0 0 0 0 0 0 0 0 0 0
5 4 3 3 3 3 4 4 2 1 0 0 0 0 0 0 0 0 0 0 0 0 0 0 0 0 0 0 0 0 0 0 0 0 0 0 0 0 0 0 0 0 0
6 5 4 4 3 3 4 5 3 1 0 0 0 0 0 0 0 0 0 0 0 0 0 0 0 0 0 0 0 0 0 0 0 0 0 0 0 0 0 0 0 0 0
6 6 5 4 4 3 4 5 4 3 1 0 0 0 0 0 0 0 0 0 0 0 0 0 0 0 0 0 0 0 0 0 0 0 0 0 0 0 0 0 0 0 0
5 6 5 4 4 3 4 5 6 4 1 0 0 0 0 0 0 0 0 0 0 0 0 0 0 0 0 0 0 0 0 0 0 0 0 0 0 0 0 0 0 0 0
Wind_Speed
2 2 2 2 3 2 2 3 3 4 4 5 4 4 4 4 4 4 4 9 9 9 7 6 6 6 6 6 6 6 6 5 5 5 5 5 5 5 6 6 6 6 6
2 2 2 2 2 2 2 2 3 3 3 3 4 5 4 4 4 4 4 6 10 10 9 8 6 6 6 6 6 6 6 6 5 6 5 5 5 5 5 6 6 6 5
2 2 2 2 2 2 2 3 3 3 3 3 4 4 4 4 4 4 4 4 4 8 9 8 7 6 6 6 6 6 6 6 6 6 6 6 5 5 5 5 5 5 5
2 2 2 2 2 2 2 2 3 3 3 3 3 3 3 3 4 4 4 4 4 4 6 9 8 7 6 6 5 6 6 6 6 6 6 6 5 5 5 4 4 5 5
2 2 2 1 2 2 2 2 3 2 2 3 2 3 3 3 3 4 4 4 4 4 4 6 9 9 7 6 6 6 5 5 5 5 5 6 6 5 5 5 5 5 5
2 2 2 2 2 2 2 2 3 3 2 2 3 3 3 3 3 3 3 3 4 4 4 5 4 5 9 8 7 6 5 5 5 5 5 5 5 5 5 5 5 4 4
2 2 2 2 2 2 2 2 2 3 2 2 2 2 3 3 3 3 3 3 4 4 4 5 4 3 4 8 8 7 6 6 5 5 5 5 5 5 5 5 5 5 4
2 2 3 2 2 2 2 2 2 2 1 2 2 2 2 3 3 3 3 3 3 3 4 5 4 4 3 3 6 8 7 6 5 5 5 5 5 5 5 5 4 5 5
1 2 3 3 2 2 2 1 2 2 1 1 2 2 2 1 2 3 3 3 3 3 3 3 4 4 4 3 3 6 8 7 6 5 5 5 4 4 4 4 4 4 5
1 2 2 3 2 2 2 1 2 1 2 1 1 1 1 2 1 1 3 3 3 3 3 3 4 4 4 3 4 6 7 7 6 5 5 4 4 4 4 5 4 5 4
1 1 2 2 2 2 2 2 2 1 2 2 1 1 1 1 1 1 1 3 2 2 2 2 2 3 3 3 3 4 6 6 7 6 6 5 5 5 5 5 5 5 5
1 1 2 2 2 2 2 2 2 2 1 2 1 1 2 2 1 1 1 1 1 2 2 2 2 2 2 3 4 6 6 6 6 6 6 5 5 5 5 4 4 4 4
1 2 2 2 2 2 2 2 2 2 2 2 2 1 1 1 2 2 1 1 1 2 2 2 1 2 2 2 3 5 5 5 5 5 5 4 4 4 4 4 4 4 4
3 3 3 3 3 3 2 2 2 2 1 2 2 2 1 1 1 2 2 2 0 1 2 2 2 2 2 2 3 4 3 5 5 4 4 4 3 3 4 4 4 4 4
3 3 3 3 3 3 3 3 2 2 2 2 2 2 1 1 1 1 2 2 3 1 1 2 2 2 2 1 3 2 2 4 4 4 4 3 3 3 3 3 3 4 4
3 4 4 3 3 3 3 3 2 2 2 2 1 2 1 1 1 1 1 1 2 3 1 1 1 2 2 2 2 2 2 4 4 4 4 4 3 2 2 2 2 3 3
4 4 4 4 4 3 3 3 3 2 3 2 2 2 2 2 1 1 1 1 1 2 2 1 1 2 1 2 2 2 2 2 2 3 3 3 2 2 2 1 1 2 2
4 4 4 4 4 4 3 4 4 3 3 3 3 3 2 2 2 2 2 2 2 2 2 1 1 1 1 1 1 1 2 1 1 2 3 3 2 2 2 1 1 1 2
3 3 4 4 4 4 4 4 4 4 4 4 4 4 3 3 3 2 2 2 2 2 1 1 1 1 1 1 1 2 2 2 2 2 2 2 2 2 2 1 1 1 2
3 4 4 5 5 4 4 4 4 4 4 3 3 4 4 5 5 4 3 3 3 2 2 1 0 1 1 1 0 0 1 2 2 2 3 2 2 3 3 2 1 1 2
3 3 4 4 4 4 5 5 5 4 4 3 3 4 4 5 6 5 4 4 4 3 2 2 1 1 1 1 1 1 1 1 2 1 1 2 2 2 2 2 2 2 2
3 3 3 4 4 5 7 8 6 4 4 4 4 4 4 4 5 6 7 7 7 6 5 3 3 3 3 3 2 1 1 0 2 1 0 2 1 1 2 2 3 3 2
3 3 3 3 4 5 7 7 8 5 4 4 4 3 3 3 4 3 4 5 5 6 7 5 4 4 4 4 3 2 2 2 3 2 0 2 1 2 2 2 4 3 3
3 3 4 4 4 5 7 7 8 5 4 4 4 5 4 4 4 4 4 3 3 4 5 4 5 5 4 4 5 4 4 1 1 1 1 1 2 2 2 2 4 4 3
3 3 3 4 4 5 6 7 7 3 3 4 4 4 4 4 5 6 4 4 3 3 4 5 5 4 4 4 4 3 2 1 1 2 1 1 2 2 2 2 3 4 3
4 3 3 3 4 5 6 7 7 3 3 3 2 3 5 5 6 6 5 5 4 4 2 2 2 2 2 3 4 4 4 3 2 2 2 2 1 1 2 2 1 2 2
Wind_Direction
67 56 51 49 46 43 48 48 50 46 40 36 40 44 41 37 29 22 14 32 35 36 36 41 43 44 51 58 66 71 70 66 67 71 74 74 74 70 71 71 68 67 65
85 74 60 54 49 45 48 57 55 54 42 40 41 39 39 35 31 29 21 21 28 31 34 40 42 44 48 60 69 71 71 71 71 67 67 76 76 75 73 72 67 64 66
96 92 80 61 46 50 58 60 53 51 51 47 42 35 36 35 34 30 25 20 14 22 28 33 36 45 50 60 68 71 70 75 73 70 70 72 71 75 77 75 69 65 64
102 97 87 67 48 57 61 67 57 59 48 45 41 30 29 28 31 30 29 23 19 15 17 25 31 40 50 57 66 70 69 74 72 71 69 68 69 72 75 76 75 73 71
100 102 94 76 64 65 59 67 58 63 63 49 49 41 29 29 21 25 26 22 20 19 15 17 25 32 42 52 61 66 67 69 71 70 70 71 68 65 64 66 71 70 72
108 107 99 85 80 78 62 65 74 54 61 53 59 46 27 22 25 27 21 18 18 20 21 20 18 20 33 43 51 55 60 65 68 65 69 71 70 71 68 66 69 67 67
120 118 109 95 89 93 94 95 91 71 47 32 57 28 11 21 30 23 17 21 18 15 24 27 24 23 22 34 40 46 48 54 60 60 62 65 68 69 68 66 66 63 62
138 139 131 124 116 105 92 89 90 88 47 37 80 73 11 353 1 15 15 24 15 16 25 26 26 26 27 28 28 36 37 41 47 50 56 60 64 66 62 61 67 64 60
153 144 144 135 133 131 136 134 119 120 117 33 57 112 128 242 316 341 4 18 17 23 21 19 26 21 25 29 22 26 30 30 35 40 46 51 59 67 66 66 67 68 62
175 152 146 140 143 138 143 166 140 127 125 114 43 50 111 152 146 329 337 357 15 25 20 20 18 18 22 23 25 29 28 22 27 29 38 49 56 60 60 65 66 67 63
194 160 151 146 149 152 161 161 137 129 129 139 140 131 90 64 87 138 297 331 353 3 15 17 13 12 15 18 18 24 27 24 26 28 36 44 53 57 59 60 59 59 58
244 192 157 162 164 161 167 168 156 146 144 138 145 149 148 146 173 157 197 282 318 329 355 13 8 360 6 10 11 20 26 25 26 28 30 35 45 50 52 47 52 54 54
220 221 189 180 176 178 169 153 151 165 167 162 170 175 172 173 159 153 155 192 313 327 346 352 347 350 2 9 0 10 19 21 23 25 27 27 35 45 47 46 45 45 47
212 207 196 190 185 175 169 156 153 177 168 177 181 174 171 192 166 165 162 151 93 339 348 320 329 346 352 357 352 4 11 16 19 21 25 28 36 44 46 46 42 42 38
203 193 192 190 189 178 171 160 171 189 171 182 193 187 188 200 183 181 162 158 159 195 283 299 312 332 340 347 347 9 9 6 11 15 22 27 39 44 46 40 42 37 30
196 184 187 187 185 183 180 170 179 191 176 195 189 184 201 205 191 173 168 159 157 162 208 281 277 311 329 337 346 3 2 2 10 17 23 30 35 35 37 37 37 33 26
193 192 191 188 190 191 184 177 187 185 193 209 206 196 213 181 168 167 148 142 141 144 181 284 315 324 341 342 349 359 3 6 359 11 15 20 22 22 16 25 29 33 21
201 199 192 189 195 194 189 189 195 194 198 208 211 200 215 183 177 168 161 168 167 163 166 229 310 328 312 313 330 360 359 355 346 350 8 10 6 4 1 353 360 11 3
208 200 189 191 197 194 191 198 198 199 205 212 209 205 205 180 191 186 183 185 179 164 152 168 265 307 315 335 354 357 1 351 346 344 355 353 358 1 356 345 328 348 340
205 201 202 202 200 198 195 196 197 204 210 217 214 210 201 192 199 196 196 193 172 156 147 149 212 280 290 305 20 338 338 346 344 347 351 356 355 350 335 330 318 303 301
209 203 201 208 202 197 198 194 195 201 204 215 219 218 213 205 202 196 194 187 172 167 164 170 203 234 253 234 230 223 254 319 328 335 344 347 353 347 327 308 294 285 279
208 208 208 212 213 215 206 201 193 200 207 213 221 225 224 223 224 215 210 193 180 177 180 183 203 214 229 221 209 199 187 16 301 307 5 312 346 306 299 299 298 287 283
208 210 217 214 224 229 221 213 205 198 204 214 218 214 219 217 217 213 221 218 209 207 195 187 194 215 213 207 185 197 204 205 235 252 187 285 302 286 287 301 299 288 285
213 215 221 221 228 236 231 224 218 203 203 211 212 209 210 218 208 196 188 199 216 225 217 208 206 218 213 200 192 196 197 197 278 272 156 248 279 276 299 293 298 291 285
224 223 221 220 228 248 242 234 218 191 204 217 217 212 205 207 212 194 175 194 220 247 241 228 231 235 226 205 178 145 150 161 255 259 199 207 252 277 288 285 288 290 290
230 226 229 225 227 239 238 232 214 187 199 214 219 223 217 209 207 194 184 188 211 231 221 237 251 258 231 203 191 183 181 184 204 242 206 196 226 259 294 283 288 304 296